sat.trackr.live / text

‹ back to catalog

STARLINK-36664

NORAD 68965 · 2026-099Q

PAYLOAD ACTIVE UNKNOWN

§ Identity

Operator
Country
US
Launch date
2026-05-01
Launch site
AFETR
Launch vehicle
Mass (kg)
RCS (m²)

Purposes: comms

External: N2YO · Heavens-Above · Gunter

§ Orbital elements

Epoch: 2026-09-20T00:48:54.741888Z

Period
93.85 min
Inclination
53.1582°
Eccentricity
0.0000832
Mean motion
15.34386900 rev/d
Perigee alt
462.2 km
Apogee alt
463.3 km
Semi-major
6,840.9 km
B*
5.5589e-4
RAAN
77.9025°
Arg perigee
114.9423°
Mean anomaly
245.1666°
Rev number
2,183

§ Raw data

STARLINK-366641 68965U 26099Q   26263.03396692  .00018444  00000+0  55589-3 0  99922 68965  53.1582  77.9025 0000832 114.9423 245.1666 15.34386900 21830

JSON: /api/v1/satellites/68965 · /tle

For live sub-satellite position, see the globe view (requires WebGL).

§ Visibility from observer

Set your observer location to see the next 7 days of passes ≥ 10°. The values pass through the URL so the page stays shareable.

No JS? Fill the form by hand. The geolocation button needs JavaScript.